STARLINK-31942, 59899

Orbit data source: Space-Track

STARLINK-31942, 59899 is a payload satellite owned by SpaceX/Seattle (US) in LEO that was launched on Tue, 28 May 2024 UTC via an FALCON 9 launch vehicle from the Air Force Eastern Test Range (AFETR). Payload-class satellites include a variety of spacecraft equipped with specific instruments for various scientific and technological missions. These include communications satellites like Starlink; space stations such as the ISS; scientific satellites like the Hubble; Earth observation satellites from companies like Planet Labs, Umbra, and HawkEye 360; GPS; miniature CubeSats for education and research; and military/defense satellites.

Loading next visibility...
Identifier
59899, 2024-100Q
Orbit
LEO
Country
Flag of USUS
Related business
Manufacturer
SpaceX/Seattle
Mission
Operational Commercial Communications
Bus & Motor
STARLINK V2M, Unknown motor
Mass
730 kg wet, ~700 kg dry
Launch date (UTC)
2024-05-28 (2 years ago)
Launch vehicle
FALCON 9
Launch site
Air Force Eastern Test Range (AFETR)
Object type
Payload
Rocket body
Debris
Shape & HBR
Box + 2 Pan, 17.7 m
Radar Cross Section
33.884 m², Large (>1 m²)

Expand to show TLE details & history
Last TLE update: 3 days ago

TLE from 3 days ago
0 STARLINK-31942
1 59899U 24100Q   26170.33271774 -.00000146  00000-0  42267-5 0  9995
2 59899  43.0045 271.2197 0001531 283.9482  76.1200 15.27575185116698
Epoch: 2026-06-19T07:59Z
TLE epoch observation values (Epoch: 2026-06-19T07:59:06.812Z)
Latitude
0.00001°
Longitude
-116.12188°
Altitude
482.588 km
Speed
7.626 km/s
True Right ascension
18h 04m 52s
True Declination
0° 00' 00"
Sunlit
Object was in full shadow at epoch
Visualization orbit readout
Latitude
Unknown
Longitude
Unknown
Altitude
Unknown
Speed
Unknown
Apparent Right ascension
Unknown
Apparent Declination
Unknown
Sunlit
N/A
Visualization observer readout
Local Sidereal Time
21:39:31
Azimuth
Unknown
Elevation
Unknown
Doppler factor
Unknown
Orbital elements
Apogee altitude
486.059 km
Perigee altitude
483.957 km
Semi-major axis
6,863.145 km
Eccentricity
0.00015
Inclination
43.0045°
RAAN
271.2197°
Arg. of periapsis
283.9482°
True anomaly
76.13703°
Mean anomaly
76.12°
Eccentric anomaly
76.12852°
Mean motion
3.81732 °/min
Orbital period
94.31 mins
BSTAR
0.0000042267
Loading maneuver chart data...
Computing Atmospheric mass density...
Loading historical data...
Loading historical data...
Loading historical data...
Loading historical data...
Loading historical data...
Loading historical data...
Loading historical data...

Documentation

Showing up to 5 results
|